Home > Weather > Vancouver > Past weeks

Flag for USA Weather for the Past 2 Weeks in Vancouver, Washington, USA

Now
77 °F

Sunny.


Feels Like: 78 °F
Forecast: 47 / 79 °F
Wind: 14 mph from East

Location: Vancouver - Pearson Airpark

Current Time: May 1, 2016 at 1:23:59 PM

Latest Report: May 1, 2016 at 12:53 PM


Visibility: 10 mi

Pressure: 29.99 "Hg

Humidity: 28%

Dew Point: 41 °F

Location of VancouverLocation

Historic Weather in Vancouver — Graph

°F

Vancouver Temperature Yesterday

Maximum temperature yesterday: 69 °F (at 5:53 PM)
Minimum temperature yesterday: 39 °F (at 5:53 AM)
Average temperature yesterday: 55 °F

High & Low Weather Summary for the Past Weeks

 TemperatureHumidityPressure
High87 °F (Apr 19, 5:53 PM)96% (Apr 30, 5:53 AM)30.36 "Hg (Apr 30, 5:53 AM)
Low38 °F (Apr 26, 6:53 AM)19% (Apr 19, 6:53 PM)29.58 "Hg (Apr 22, 5:53 AM)
Average57 °F66%30.04 "Hg
* Reported Apr 16 11:53 AM — May 1 11:53 AM, Vancouver, Weather by CustomWeather, © 2016

Note: Actual official high and low records may vary slightly from our data, if they occured in-between our weather recording intervals... More about our weather records

Advertising

Vancouver Weather History for the Previous 24 Hours

Scroll right to see more
 ConditionsComfort  
Time TempWeatherWind HumidityBarometerVisibility
11:53 AM
Sun, May 1
72 °FSunny.6 mph44%30.03 "Hg10 mi
10:53 AM65 °FSunny.9 mph54%30.06 "Hg10 mi
9:53 AM61 °FSunny.7 mph62%30.09 "Hg10 mi
8:53 AM58 °FSunny.6 mph62%30.12 "Hg10 mi
7:53 AM54 °FSunny.3 mph69%30.15 "Hg10 mi
6:53 AM48 °FClear.No wind83%30.16 "Hg10 mi
5:53 AM46 °FClear.No wind86%30.16 "Hg10 mi
4:53 AM44 °FClear.No wind89%30.17 "Hg10 mi
3:53 AM46 °FClear.No wind86%30.18 "Hg10 mi
2:53 AM47 °FClear.No wind83%30.19 "Hg10 mi
1:53 AM48 °FClear.No wind83%30.20 "Hg10 mi
12:53 AM53 °FClear.No wind72%30.21 "Hg10 mi
11:53 PM
Sat, Apr 30
57 °FClear.3 mph62%30.21 "Hg10 mi
10:53 PM60 °FClear.5 mph56%30.22 "Hg10 mi
9:53 PM62 °FClear.9 mph54%30.22 "Hg10 mi
8:53 PM64 °FSunny.6 mph47%30.22 "Hg10 mi
7:53 PM66 °FSunny.9 mph40%30.21 "Hg10 mi
6:53 PM68 °FSunny.10 mph39%30.21 "Hg10 mi
5:53 PM69 °FSunny.8 mph39%30.23 "Hg10 mi
4:53 PM68 °FSunny.10 mph42%30.24 "Hg10 mi
3:53 PM67 °FSunny.6 mph49%30.26 "Hg10 mi
2:53 PM63 °FSunny.5 mph56%30.29 "Hg10 mi
1:53 PM58 °FSunny.5 mph62%30.30 "Hg10 mi
Weather by CustomWeather, © 2016

See weather overviewHow to use our weather pages